Flag for U.S.A. Weather past 2 weeks in Port Angeles, Washington, U.S.A.

Now
53 °F

Overcast.


Feels Like: 53 °F
Forecast: 54 / 65 °F
Wind: 3 mph from West

Location: William R. Fairchild International Airport

Current Time: Aug 21, 2014 at 7:45:34 AM

Latest Report: Aug 21, 2014 at 6:53 AM


Visibility: 8 mi

Pressure: 30.02 "Hg

Humidity: 89%

Dew point: 50 °F

Location of Port AngelesLocation

Historic Weather in Port Angeles — Graph

°F

Port Angeles temperature yesterday

Maximum temperature yesterday: 68 °F (at 3:53 PM)
Minimum temperature yesterday: 53 °F (at 5:53 AM)
Average temperature yesterday: 59 °F

Past Weeks' High & Low Weather Summary

 TemperatureHumidityPressure
High85 °F (Aug 10, 4:53 PM)97% (Aug 9, 7:00 AM)30.18 "Hg (Aug 9, 7:00 AM)
Low52 °F (Aug 8, 5:53 AM)29% (Aug 10, 4:53 PM)29.80 "Hg (Aug 12, 2:53 AM)
Average62 °F76%30.02 "Hg
* Reported Aug 6 5:53 AM — Aug 21 5:53 AM, Port Angeles, Weather by CustomWeather, © 2014

Note: Actual official high and low records may vary slightly from our data, if they occured in-between our weather recording intervals... More about our weather records

Advertising

Port Angeles weather history for previous 24 hours

 ConditionsComfort  
Time TempWeatherWind HumidityBarometerVisibility
5:53 AM
Aug 21
53 °FOvercast.3 mph89%30.02 "Hg9 mi
4:53 AM52 °FCool.6 mph89%30.02 "Hg10 mi
3:53 AM52 °FCool.3 mph89%30.01 "Hg10 mi
2:53 AM53 °FCool.5 mph86%30.02 "Hg10 mi
1:53 AM53 °FPassing clouds.8 mph89%30.01 "Hg9 mi
12:53 AM53 °FClear.10 mph89%30.01 "Hg8 mi
11:53 PM
Aug 20
53 °FClear.9 mph89%30.00 "Hg8 mi
10:53 PM55 °FClear.9 mph83%29.99 "Hg9 mi
9:53 PM56 °FClear.10 mph84%29.99 "Hg10 mi
8:53 PM56 °FSunny.7 mph84%29.98 "Hg10 mi
7:53 PM58 °FSunny.5 mph81%29.97 "Hg10 mi
6:53 PM60 °FSunny.8 mph75%29.97 "Hg10 mi
5:53 PM63 °FSunny.6 mph68%29.97 "Hg10 mi
4:53 PM67 °FMild.6 mph59%29.97 "Hg10 mi
3:53 PM68 °FMild.6 mph55%29.96 "Hg10 mi
2:53 PM65 °FMild.6 mph59%29.96 "Hg10 mi
1:53 PM67 °FMild.5 mph57%29.97 "Hg10 mi
12:53 PM65 °FPassing clouds.5 mph66%29.96 "Hg10 mi
11:53 AM64 °FSunny.5 mph68%29.96 "Hg10 mi
10:53 AM60 °FOvercast.5 mph75%29.95 "Hg10 mi
9:53 AM60 °FOvercast.3 mph75%29.94 "Hg10 mi
8:53 AM60 °FOvercast.No wind75%29.93 "Hg10 mi
7:53 AM58 °FPartly sunny.No wind81%29.92 "Hg10 mi
Weather by CustomWeather, © 2014

See weather overviewHow to use our weather pages